HS5FXK-3 Weather Reports


time (UTC)temp
F
wind
direction
speed
knots
gust
knots
rain 1hr
in
rain 24hr
in
rain mn
in
humidity
%
barometer
mb
20260508024718 92 0 0.0 0.0 0.00 0.00 0.00 62 981.0
20260508023206 89 0 0.0 0.0 0.00 0.00 0.00 69 981.0
20260508021654 89 0 0.0 0.0 0.00 0.00 0.00 71 981.0
20260508020142 90 0 0.0 0.0 0.00 0.00 0.00 68 981.0
20260508014629 89 0 0.0 0.0 0.00 0.00 0.00 71 981.0
20260508013117 86 0 0.0 0.0 0.00 0.00 0.00 82 981.0
20260508012442 85 0 0.0 0.0 0.00 0.00 0.00 86 981.0
20260508010701 84 0 0.0 0.0 0.00 0.00 0.00 89 981.0
20260508005212 84 0 0.0 0.0 0.00 0.00 0.00 94 981.0
20260508003523 82 0 0.0 0.0 0.00 0.00 0.00 99 981.0
20260508001135 81 0 0.0 0.0 0.00 0.00 0.00 99 980.0
20260507235623 81 0 0.0 0.0 0.00 0.00 0.00 99 980.0
20260507234111 80 0 0.0 0.0 0.00 0.00 0.00 99 980.0
20260507232600 81 0 0.0 0.0 0.00 0.00 0.00 99 980.0
20260507231047 81 0 0.0 0.0 0.00 0.00 0.00 99 980.0
20260507225534 81 0 0.0 0.0 0.00 0.00 0.00 99 979.0
20260507224330 81 0 0.0 0.0 0.00 0.00 0.00 99 979.0
20260507222817 80 0 0.0 0.0 0.00 0.00 0.00 99 979.0
20260507221305 81 0 0.0 0.0 0.00 0.00 0.00 99 979.0
20260507215753 81 0 0.0 0.0 0.00 0.00 0.00 99 979.0
20260507214241 81 0 0.0 0.0 0.00 0.00 0.00 99 979.0
20260507212729 81 0 0.0 0.0 0.00 0.00 0.00 99 979.0
20260507211217 81 0 0.0 0.0 0.00 0.00 0.00 99 978.0
20260507205704 81 0 0.0 0.0 0.00 0.00 0.00 99 978.0
20260507204152 79 0 0.0 0.0 0.00 0.00 0.00 99 978.0
20260507202640 81 0 0.0 0.0 0.00 0.00 0.00 99 978.0
20260507201128 81 0 0.0 0.0 0.00 0.00 0.00 99 978.0
20260507195615 81 0 0.0 0.0 0.00 0.00 0.00 99 978.0
20260507194931 81 0 0.0 0.0 0.00 0.00 0.00 99 978.0
20260507193418 81 0 0.0 0.0 0.00 0.00 0.00 99 978.0
20260507191906 81 0 0.0 0.0 0.00 0.00 0.00 99 978.0
20260507190354 81 0 0.0 0.0 0.00 0.00 0.00 99 978.0
20260507184842 81 0 0.0 0.0 0.00 0.00 0.00 98 978.0
20260507183329 81 0 0.0 0.0 0.00 0.00 0.00 94 978.0
20260507181817 82 0 0.0 0.0 0.00 0.00 0.00 94 979.0
20260507180304 82 0 0.0 0.0 0.00 0.00 0.00 91 979.0
20260507174752 82 0 0.0 0.0 0.00 0.00 0.00 88 979.0
20260507173240 82 0 0.0 0.0 0.00 0.00 0.00 89 979.0
20260507171728 82 0 0.0 0.0 0.00 0.00 0.00 88 980.0
20260507170216 82 0 0.0 0.0 0.00 0.00 0.00 87 980.0
20260507164703 83 0 0.0 0.0 0.00 0.00 0.00 85 980.0
20260507163435 83 0 0.0 0.0 0.00 0.00 0.00 82 980.0
20260507163236 83 0 0.0 0.0 0.00 0.00 0.00 82 980.0
20260507161724 84 0 0.0 0.0 0.00 0.00 0.00 75 980.0
20260507160257 84 0 0.0 0.0 0.00 0.00 0.00 73 980.0
20260507155542 85 0 0.0 0.0 0.00 0.00 0.00 73 980.0
20260507154029 85 0 0.0 0.0 0.00 0.00 0.00 73 979.0
20260507152517 86 0 0.0 0.0 0.00 0.00 0.00 71 979.0
20260507151005 85 0 0.0 0.0 0.00 0.00 0.00 69 979.0
20260507145453 85 0 0.0 0.0 0.00 0.00 0.00 72 978.0
20260507143941 85 0 0.0 0.0 0.00 0.00 0.00 72 979.0
20260507142428 85 0 0.0 0.0 0.00 0.00 0.00 72 979.0
20260507140916 85 0 0.0 0.0 0.00 0.00 0.00 75 978.0
20260507135404 85 0 0.0 0.0 0.00 0.00 0.00 74 978.0
20260507133935 86 0 0.0 0.0 0.00 0.00 0.00 73 978.0
20260507132423 86 0 0.0 0.0 0.00 0.00 0.00 65 977.0
20260507130911 87 0 0.0 0.0 0.00 0.00 0.00 57 977.0
20260507125359 87 0 0.0 0.0 0.00 0.00 0.00 55 976.0
20260507123846 87 0 0.0 0.0 0.00 0.00 0.00 56 976.0
20260507122412 87 0 0.0 0.0 0.00 0.00 0.00 56 976.0
20260507120900 87 0 0.0 0.0 0.00 0.00 0.00 55 975.0
20260507115347 87 0 0.0 0.0 0.00 0.00 0.00 55 975.0
20260507113835 87 0 0.0 0.0 0.00 0.00 0.00 58 975.0
20260507112323 87 0 0.0 0.0 0.00 0.00 0.00 57 975.0
20260507110810 91 0 0.0 0.0 0.00 0.00 0.00 50 975.0
20260507105258 96 0 0.0 0.0 0.00 0.00 0.00 45 974.0
20260507103746 97 0 0.0 0.0 0.00 0.00 0.00 43 973.0
20260507102233 97 0 0.0 0.0 0.00 0.00 0.00 43 973.0
20260507101851 97 0 0.0 0.0 0.00 0.00 0.00 44 973.0
20260507100337 99 0 0.0 0.0 0.00 0.00 0.00 41 973.0
20260507095228 101 0 0.0 0.0 0.00 0.00 0.00 41 973.0
20260507094055 101 0 0.0 0.0 0.00 0.00 0.00 39 973.0
20260507092542 103 0 0.0 0.0 0.00 0.00 0.00 38 973.0
20260507090947 105 0 0.0 0.0 0.00 0.00 0.00 35 973.0
20260507090757 105 0 0.0 0.0 0.00 0.00 0.00 36 973.0
20260507085244 105 0 0.0 0.0 0.00 0.00 0.00 35 973.0
20260507083732 106 0 0.0 0.0 0.00 0.00 0.00 35 973.0
20260507082220 106 0 0.0 0.0 0.00 0.00 0.00 36 973.0
20260507081605 104 0 0.0 0.0 0.00 0.00 0.00 36 973.0
20260507080053 107 0 0.0 0.0 0.00 0.00 0.00 33 973.0
20260507074541 107 0 0.0 0.0 0.00 0.00 0.00 35 974.0
20260507074438 108 0 0.0 0.0 0.00 0.00 0.00 34 974.0
20260507072926 106 0 0.0 0.0 0.00 0.00 0.00 35 974.0
20260507071413 105 0 0.0 0.0 0.00 0.00 0.00 37 974.0
20260507065903 107 0 0.0 0.0 0.00 0.00 0.00 35 975.0
20260507064349 106 0 0.0 0.0 0.00 0.00 0.00 35 975.0
20260507062837 107 0 0.0 0.0 0.00 0.00 0.00 36 976.0
20260507061325 107 0 0.0 0.0 0.00 0.00 0.00 36 976.0
20260507055824 106 0 0.0 0.0 0.00 0.00 0.00 38 976.0
20260507054319 106 0 0.0 0.0 0.00 0.00 0.00 41 977.0
20260507052748 106 0 0.0 0.0 0.00 0.00 0.00 40 977.0
20260507051811 106 0 0.0 0.0 0.00 0.00 0.00 41 977.0
20260507045725 104 0 0.0 0.0 0.00 0.00 0.00 43 978.0
20260507044623 105 0 0.0 0.0 0.00 0.00 0.00 43 978.0
20260507043430 101 0 0.0 0.0 0.00 0.00 0.00 45 978.0
20260507041838 99 0 0.0 0.0 0.00 0.00 0.00 49 978.0
20260507040326 100 0 0.0 0.0 0.00 0.00 0.00 49 978.0
20260507035023 100 0 0.0 0.0 0.00 0.00 0.00 51 978.0
20260507033301 98 0 0.0 0.0 0.00 0.00 0.00 53 979.0
20260507032903 98 0 0.0 0.0 0.00 0.00 0.00 53 979.0
20260507031351 95 0 0.0 0.0 0.00 0.00 0.00 58 979.0